{"data":{"norad_id":64775,"intl_designator":"2025-147W","name":"STARLINK-34657","alt_names":[],"object_type":"PAYLOAD","status":"ACTIVE","operator":null,"country":"US","launch_date":"2025-07-08","launch_site_code":"AFETR","launch_vehicle":null,"mission":null,"orbit_class":"UNKNOWN","rcs_meters":null,"size_class":null,"mass_kg":null,"dimensions":null,"purposes":["comms"],"wikipedia_slug":null,"has_3d_model":false,"image_url":null,"decayed_at":null,"tle_current":{"epoch":"2026-05-24T19:20:04.411104Z","epoch_age_seconds":89065,"freshness":"FRESH","line1":"1 64775U 25147W   26144.80560661  .00016872  00000+0  50924-3 0  9993","line2":"2 64775  53.1609 248.6146 0001022 100.5561 259.5557 15.34407578 50411","mean_motion":15.34407578,"eccentricity":0.0001022,"inclination_deg":53.1609,"raan_deg":248.6146,"arg_perigee_deg":100.5561,"mean_anomaly_deg":259.5557,"bstar":0.00050924,"rev_number":5041,"period_min":93.847294594109,"perigee_km":461.98158531615,"apogee_km":463.37984845748,"semimajor_km":6840.8177168868,"source":"CELESTRAK","updated_at":"2026-05-25T13:38:20.558987Z"}}}